Startpagina
METAR-TAF:

METAR-TAF

Vliegvelden :

Hoorn-a, Nederland

Productieplatform

breedte: 52-55-05N, lengte: 4-09-01E, hoogte: 41 m

Actueel weer

Dit bericht is 17 minuten geleden gemaakt, om 18:55 UTC
Wind 23 kt uit het zuiden
Temperatuur 9°C
Vochtigheid 93%
Druk 1013 hPa
Zicht 10 km of meer

METAR: EHQE 231855Z AUTO 17023KT 9999 NSC 09/08 Q1013 W///H///

Tijdstip: 21:12 (19:12 UTC)


TAF: ontbreekt

Waarnemingen en weersverwachtingen van meer dan 4000 vliegvelden (METAR en TAF).

De beschikbare stations zijn de gele en rode punten op de kaart.

Ga met uw muis naar het station om de naam te zien.

Klik dan om waarnemingen en weersverwachtingen te zien.

kaart wijzigen: klik op de groene knoppen met een zwart kruis om in te zoomen, op de groene knop met een streepje om uit te zoomen of op de groene pijlen voor aangrenzende kaarten.


METAR-TAF: